Location: Juzet
(42.9779°N, 0.7597°E)
Time: 19:05:06
(UTC+00:00)

Cosmos 1697 Rocket - Pass Details

Date: 14 July 2020
Orbit: 834 x 842 km, 71.0° (Epoch: 11 August)

Event Time Altitude Azimuth Distance (km) Brightness Sun altitude
Rises 02:09:01 0° 334° (NNW) 3,395 6.3 -19.2°
Reaches altitude 10° 02:11:28 10° 335° (NNW) 2,456 5.5 -18.9°
Maximum altitude 02:17:07 86° 248° (WSW) 842 2.6 -18.4°
Enters shadow 02:22:29 11° 159° (SSE) 2,347 4.7 -17.9°
